GW1187 Weather Reports


Display with metric or nautical units.
time (UTC)temp
F
wind
direction
speed
MPH
gust
MPH
rain 1hr
in
rain 24hr
in
rain mn
in
humidity
%
barometer
mb
20260509180045 44 0 0.0 1.0 0.09 0.34 0.34 93 1012.8
20260509174541 44 86 1.0 2.0 0.08 0.31 0.31 92 1013.0
20260509173114 45 0 0.0 2.0 0.09 0.29 0.29 92 1013.0
20260509171548 45 0 0.0 0.0 0.10 0.27 0.27 92 1013.2
20260509170055 45 0 0.0 0.0 0.09 0.25 0.25 93 1013.3
20260509164544 45 0 0.0 0.0 0.09 0.23 0.23 93 1013.3
20260509163042 45 0 0.0 0.0 0.08 0.20 0.20 92 1013.2
20260509161543 45 0 0.0 0.0 0.06 0.17 0.17 91 1013.3
20260509160050 45 0 0.0 0.0 0.05 0.15 0.15 92 1013.5
20260509154547 44 0 0.0 0.0 0.05 0.14 0.14 92 1013.7
20260509153046 44 0 0.0 0.0 0.03 0.12 0.12 92 1013.8
20260509151555 44 69 1.0 2.0 0.03 0.11 0.11 91 1014.1
20260509150046 44 42 1.0 3.0 0.03 0.10 0.10 91 1014.0
20260509144540 44 53 0.0 2.0 0.03 0.09 0.09 93 1014.1
20260509143054 44 0 0.0 2.0 0.04 0.09 0.09 93 1014.0
20260509141549 43 0 0.0 0.0 0.03 0.08 0.08 93 1014.1
20260509140046 42 0 0.0 0.0 0.02 0.07 0.07 93 1014.0
20260509134546 42 0 0.0 0.0 0.02 0.06 0.06 93 1013.8
20260509133041 41 0 0.0 0.0 0.02 0.05 0.05 92 1013.7
20260509131555 41 0 0.0 0.0 0.03 0.05 0.05 93 1013.7
20260509130100 40 0 0.0 0.0 0.04 0.05 0.05 92 1013.5
20260509124549 40 0 0.0 0.0 0.04 0.04 0.04 91 1013.8
20260509123116 39 0 0.0 0.0 0.03 0.03 0.03 91 1013.9
20260509121542 39 0 0.0 0.0 0.02 0.02 0.02 90 1014.1
20260509120048 38 0 0.0 0.0 0.01 0.01 0.01 88 1014.2
20260509114621 37 0 0.0 0.0 0.00 0.00 0.00 87 1014.3
20260509113052 37 0 0.0 0.0 0.00 0.00 0.00 88 1014.4
20260509111545 36 0 0.0 0.0 0.00 0.00 0.00 90 1014.3
20260509110053 35 0 0.0 0.0 0.00 0.00 0.00 91 1014.4
20260509104541 34 0 0.0 0.0 0.00 0.00 0.00 91 1014.3
20260509103041 33 0 0.0 0.0 0.00 0.00 0.00 92 1014.1
20260509101553 33 0 0.0 0.0 0.00 0.00 0.00 92 1014.3
20260509100046 32 0 0.0 0.0 0.00 0.00 0.00 92 1014.4
20260509094546 32 0 0.0 0.0 0.00 0.00 0.00 92 1014.1
20260509093041 31 0 0.0 0.0 0.00 0.00 0.00 92 1013.9
20260509091544 31 0 0.0 0.0 0.00 0.00 0.00 92 1013.8
20260509090049 31 0 0.0 0.0 0.00 0.00 0.00 92 1013.6
20260509084552 30 0 0.0 0.0 0.00 0.00 0.00 92 1013.7
20260509083045 30 0 0.0 0.0 0.00 0.00 0.00 92 1013.7
20260509081548 30 0 0.0 0.0 0.00 0.00 0.00 92 1013.5
20260509080045 30 0 0.0 0.0 0.00 0.00 0.00 91 1013.6
20260509074543 30 0 0.0 0.0 0.00 0.00 0.00 91 1013.5
20260509073048 30 0 0.0 0.0 0.00 0.00 0.00 91 1013.2
20260509071551 31 0 0.0 0.0 0.00 0.00 0.00 91 1013.4
20260509070049 31 0 0.0 0.0 0.00 0.00 0.00 90 1013.3
20260509064553 31 0 0.0 0.0 0.00 0.00 0.00 90 1013.3
20260509063049 31 0 0.0 0.0 0.00 0.00 0.00 89 1013.3
20260509061601 32 0 0.0 0.0 0.00 0.00 0.00 89 1013.5
20260509060048 33 0 0.0 0.0 0.00 0.00 0.00 88 1013.6
20260509054606 33 0 0.0 0.0 0.00 0.00 0.00 88 1013.7
20260509053051 34 0 0.0 0.0 0.00 0.00 0.00 88 1013.8
20260509051544 33 0 0.0 0.0 0.00 0.00 0.00 87 1013.5
20260509050052 34 0 0.0 0.0 0.00 0.00 0.00 87 1013.3
20260509044548 35 0 0.0 0.0 0.00 0.00 0.00 87 1013.4
20260509043041 35 0 0.0 0.0 0.00 0.00 0.00 86 1013.2
20260509041549 35 0 0.0 0.0 0.00 0.00 0.00 86 1013.1
20260509040049 36 0 0.0 0.0 0.00 0.00 0.00 84 1013.0
20260509034547 36 0 0.0 0.0 0.00 0.00 0.00 83 1013.0
20260509033048 37 0 0.0 0.0 0.00 0.00 0.00 82 1012.9
20260509031559 37 0 0.0 0.0 0.00 0.00 0.00 81 1012.9
20260509030040 38 0 0.0 0.0 0.00 0.00 0.00 79 1012.8
20260509024541 39 0 0.0 0.0 0.00 0.00 0.00 77 1012.7
20260509023040 40 0 0.0 0.0 0.00 0.00 0.00 74 1012.5
20260509021547 42 0 0.0 0.0 0.00 0.00 0.00 74 1012.5
20260509020048 42 0 0.0 0.0 0.00 0.00 0.00 71 1012.2
20260509014544 43 0 0.0 0.0 0.00 0.00 0.00 68 1012.0
20260509013044 44 0 0.0 0.0 0.00 0.00 0.00 68 1011.8
20260509011543 45 0 0.0 0.0 0.00 0.00 0.00 66 1011.6
20260509010049 45 0 0.0 0.0 0.00 0.00 0.00 66 1011.4
20260509004550 46 0 0.0 0.0 0.00 0.00 0.00 63 1011.1
20260509003049 46 0 0.0 1.0 0.00 0.00 0.00 61 1010.9
20260509001545 47 0 0.0 2.0 0.00 0.00 0.00 58 1010.7
20260509000049 48 119 0.0 3.0 0.00 0.00 0.00 56 1010.6
20260508234548 49 0 0.0 5.0 0.00 0.00 0.00 54 1010.3
20260508233053 49 142 2.0 6.0 0.00 0.00 0.00 52 1010.0
20260508231546 50 120 1.0 6.0 0.00 0.00 0.00 51 1009.7
20260508230114 50 109 1.0 5.0 0.00 0.00 0.00 49 1009.8
20260508224549 51 115 2.0 7.0 0.00 0.00 0.00 50 1009.7
20260508223041 51 133 3.0 6.0 0.00 0.00 0.00 49 1009.8
20260508221541 52 153 2.0 8.0 0.00 0.00 0.00 44 1009.6
20260508220109 53 171 2.0 10.0 0.00 0.00 0.00 40 1009.3
20260508214549 54 158 0.0 7.0 0.00 0.00 0.00 39 1009.0
20260508213046 55 129 2.0 9.0 0.00 0.00 0.00 36 1009.0
20260508211547 57 141 2.0 10.0 0.00 0.00 0.00 35 1008.6
20260508210045 57 30 3.0 10.0 0.00 0.00 0.00 33 1008.6
20260508204555 57 153 4.0 9.0 0.00 0.00 0.00 35 1008.5
20260508203048 55 330 3.0 7.0 0.00 0.00 0.00 38 1008.5
20260508201548 56 65 3.0 10.0 0.00 0.00 0.00 37 1008.5
20260508200046 56 18 2.0 12.0 0.00 0.00 0.00 36 1008.4
20260508194542 55 147 4.0 9.0 0.00 0.00 0.00 39 1008.4
20260508193047 54 92 1.0 6.0 0.00 0.00 0.00 39 1008.3
20260508191551 54 120 3.0 10.0 0.00 0.00 0.00 37 1008.5
20260508190103 53 35 2.0 8.0 0.00 0.00 0.00 39 1008.8
20260508184551 54 291 3.0 10.0 0.00 0.00 0.00 38 1008.9
20260508183047 53 143 0.0 8.0 0.00 0.00 0.00 40 1008.8
20260508181604 53 39 2.0 7.0 0.00 0.00 0.00 40 1009.0